SCP
0 0 0 0 0 0 0 0 0 0 0 0 0 0 0 0 0 0 0 0 0 0 0 0 0 0 0 0 0 0 0 0 0 0 0 0 0 0 0 0 0 0 0 0 0 0 0 0 0
0 0 0 0 0 0 0 0 0 0 0 0 0 0 0 0 0 0 0 0 0 0 0 0 0 0 0 0 0 0 0 0 0 0 0 0 0 0 0 0 0 0 0 0 0 0 0 0 0
0 0 0 0 0 0 0 0 0 0 0 0 0 0 0 0 0 0 0 0 0 0 0 0 0 0 0 0 0 0 0 0 0 0 0 0 0 0 0 0 0 0 0 0 0 0 0 0 0
0 0 0 0 0 0 0 0 0 0 0 0 0 0 0 0 0 0 0 0 0 0 0 0 0 0 0 0 0 0 0 0 0 0 0 0 0 0 0 0 0 0 0 0 0 0 0 0 0
0 0 0 0 0 0 0 0 0 0 0 0 0 0 0 0 0 0 0 0 0 0 0 0 0 0 0 0 0 0 0 0 0 0 0 0 0 0 0 0 0 0 0 0 0 0 0 0 0
0 0 0 0 0 0 0 0 0 0 0 0 0 0 0 0 0 0 0 0 0 0 0 0 0 0 0 0 0 0 0 0 0 0 0 0 0 0 0 0 0 0 0 0 0 0 0 0 0
0 0 0 0 0 0 0 0 0 0 0 0 0 0 0 0 0 0 0 0 0 0 0 0 0 0 0 0 0 0 0 0 0 0 0 0 0 0 0 0 0 0 0 0 0 0 0 0 0
0 0 0 0 0 0 0 0 0 0 0 0 0 0 0 0 0 0 0 0 0 0 0 0 0 0 0 0 0 0 0 0 0 0 0 0 0 0 0 0 0 0 0 0 0 0 0 0 0
0 0 0 0 0 0 0 0 0 0 0 0 0 0 0 0 0 0 0 0 0 0 0 0 0 0 0 0 0 0 0 0 0 0 0 0 0 0 0 0 0 0 0 0 0 0 0 0 0
0 0 0 0 0 0 0 0 0 0 0 0 0 0 0 0 0 0 0 0 0 0 0 0 0 0 0 0 0 0 0 0 0 0 0 0 0 0 0 0 0 0 0 0 0 0 0 0 0
0 0 0 0 0 0 0 0 0 0 0 0 0 0 0 0 0 0 0 0 0 0 0 0 0 0 0 0 0 0 0 0 0 0 0 0 0 0 0 0 0 0 0 0 0 0 0 0 0
0 0 0 0 0 0 0 0 0 0 0 0 0 0 0 0 0 0 0 0 0 0 0 0 0 0 0 0 0 0 0 0 0 0 0 0 0 0 0 0 0 0 0 0 0 0 0 0 0
0 0 0 0 0 0 0 0 0 0 0 0 0 0 0 0 0 0 0 0 0 0 0 0 0 0 0 0 0 0 0 0 0 0 0 0 0 0 0 0 0 0 0 0 0 0 0 0 0
0 0 0 0 0 0 0 0 0 0 0 0 0 0 0 0 0 0 0 0 0 0 0 0 0 0 0 0 0 0 0 0 0 0 0 0 0 0 0 0 0 0 0 0 0 0 0 0 0
0 0 0 0 0 0 0 0 0 0 0 0 0 0 0 0 0 0 0 0 0 0 0 0 0 0 0 0 0 0 0 0 0 0 0 0 0 0 0 0 0 0 0 0 0 0 0 0 0
0 0 0 0 0 0 0 0 0 0 0 0 0 0 0 0 0 0 0 0 0 0 0 0 0 0 0 0 0 0 0 0 0 0 0 0 0 0 0 0 0 0 0 0 0 0 0 0 0
0 0 0 0 0 0 0 0 0 0 0 0 0 0 0 0 0 0 0 0 0 0 0 0 0 0 0 0 0 0 0 0 0 0 0 0 0 0 0 0 0 0 0 0 0 0 0 0 0
0 0 0 0 0 0 0 0 0 0 0 0 0 0 0 0 0 0 0 0 0 0 0 0 0 0 0 0 0 0 0 0 0 0 0 0 0 0 0 0 0 0 0 0 0 0 0 0 0
0 0 0 0 0 0 0 0 0 0 0 0 0 0 0 0 0 0 0 0 0 0 0 0 0 0 0 0 0 0 0 0 0 0 0 0 0 0 0 0 0 0 0 0 0 0 0 0 0
0 0 0 0 0 0 0 0 0 0 0 0 0 0 0 0 0 0 0 0 0 0 0 0 0 0 0 0 0 0 0 0 0 0 0 0 0 0 0 0 0 0 0 0 0 0 0 0 0
0 0 0 0 0 0 0 0 0 0 0 0 0 0 0 0 0 0 0 0 0 0 0 0 0 0 0 0 0 0 0 0 0 0 0 0 0 0 0 0 0 0 0 0 0 0 0 0 0
0 0 0 0 0 0 0 0 0 0 0 0 0 0 0 0 0 0 0 0 0 0 0 0 0 0 0 0 0 0 0 0 0 0 0 0 0 0 0 0 0 0 0 0 0 0 0 0 0
0 0 0 0 0 0 0 0 0 0 0 0 0 0 0 0 0 0 0 0 0 0 0 0 0 0 0 0 0 0 0 0 0 0 0 0 0 0 0 0 0 0 0 0 0 0 0 0 0
0 0 0 0 0 0 0 0 0 0 0 0 0 0 0 0 0 0 0 0 0 0 0 0 0 0 0 0 0 0 0 0 0 0 0 0 0 0 0 0 0 0 0 0 0 0 0 0 0
0 0 0 0 0 0 0 0 0 0 0 0 0 0 0 0 0 0 0 0 0 0 0 0 0 0 0 0 0 0 0 0 0 0 0 0 0 0 0 0 0 0 0 0 0 0 0 0 0
0 0 0 0 0 0 0 0 0 0 0 0 0 0 0 0 0 0 0 0 0 0 0 0 0 0 0 0 0 0 0 0 0 0 0 0 0 0 0 0 0 0 0 0 0 0 0 0 0
0 0 0 0 0 0 0 0 0 0 0 0 0 0 0 0 0 0 0 0 0 0 0 0 0 0 0 0 0 0 0 0 0 0 0 0 0 0 0 0 0 0 0 0 0 0 0 0 0
0 0 0 0 0 0 0 0 0 0 0 0 0 0 0 0 0 0 0 0 0 0 0 0 0 0 0 0 0 0 0 0 0 0 0 0 0 0 0 0 0 0 0 0 0 0 0 0 0
0 0 0 0 0 0 0 0 0 0 0 0 0 0 0 0 0 0 0 0 0 0 0 0 0 0 0 0 0 0 0 0 0 0 0 0 0 0 0 0 0 0 0 0 0 0 0 0 0
0 0 0 0 0 0 0 0 0 0 0 0 0 0 0 0 0 0 0 0 0 0 0 0 0 0 0 0 0 0 0 0 0 0 0 0 0 0 0 0 0 0 0 0 0 0 0 0 0
Wind_Speed
11 8 5 5 5 3 10 9 7 7 6 5 5 5 6 7 7 6 5 4 5 6 7 9 8 6 6 5 6 6 6 6 7 8 8 8 8 8 8 9 9 9 10 10 10 10 11 13 13
7 4 5 5 2 8 10 9 9 9 6 4 5 5 6 7 6 5 5 4 4 5 6 7 8 6 5 5 5 5 6 6 7 7 7 7 7 8 8 8 9 9 9 9 10 11 12 13 13
5 5 5 1 7 9 9 9 8 8 6 4 4 6 6 6 5 4 5 4 4 6 6 9 6 5 5 5 5 5 6 6 6 6 6 6 6 7 7 8 8 8 9 9 10 11 12 12 12
4 5 4 3 12 11 8 6 6 6 6 5 5 6 6 5 4 5 5 4 5 6 7 9 6 4 5 5 5 5 5 5 5 5 6 6 6 7 7 7 8 8 8 8 9 10 11 11 12
5 4 2 9 12 10 8 6 4 5 5 6 6 7 7 6 6 7 5 4 5 5 6 9 7 5 5 5 5 5 5 5 5 5 5 6 6 7 7 7 7 7 7 8 9 10 10 10 11
4 2 4 10 11 9 8 6 5 7 7 6 6 7 7 5 5 5 5 4 5 5 5 8 9 6 6 6 5 5 5 5 5 5 5 6 6 6 6 6 6 7 7 8 9 10 9 9 9
4 3 7 9 9 9 7 5 5 6 7 6 4 6 7 6 5 4 5 5 5 5 5 5 7 8 8 6 6 5 5 5 5 5 5 5 6 6 6 6 6 7 7 8 8 9 9 9 9
4 2 7 9 9 9 6 5 5 5 7 6 3 4 6 7 6 6 5 5 5 4 4 5 5 4 5 7 7 5 5 5 4 5 4 4 6 7 7 7 6 6 7 7 7 8 9 9 9
5 1 8 9 7 7 5 5 5 5 7 5 4 6 9 9 7 7 6 6 5 5 4 4 5 4 4 5 6 5 6 5 4 5 4 4 3 5 5 6 6 6 6 6 5 8 10 9 10
3 4 10 7 6 6 5 4 5 5 7 6 7 9 10 9 7 7 6 6 5 5 4 4 4 3 3 3 3 2 3 3 2 3 2 2 2 2 4 8 7 6 5 6 5 6 9 7 6
1 5 6 5 6 5 5 5 4 4 5 6 8 10 10 8 7 6 5 5 5 4 3 4 4 2 2 2 2 1 2 2 2 3 1 2 2 2 3 3 5 5 5 4 5 5 3 3 3
2 3 3 4 4 4 5 5 5 4 7 7 8 11 10 8 6 6 5 4 4 3 4 4 3 2 2 1 1 1 1 1 1 3 1 1 2 2 2 1 2 2 2 2 2 2 3 3 3
2 3 3 3 4 4 4 5 5 6 7 9 11 10 8 7 6 5 5 5 4 4 3 3 2 2 2 1 1 1 1 1 2 2 2 1 1 2 2 2 1 1 2 2 2 2 3 3 3
3 3 3 4 5 5 4 5 5 7 8 9 10 10 8 7 6 5 4 4 4 3 3 3 2 2 1 1 0 0 1 1 1 2 3 1 2 2 2 2 2 1 1 1 2 3 3 3 3
3 3 4 5 4 4 3 5 5 8 8 9 9 9 8 6 5 4 4 3 3 3 3 2 2 2 1 0 1 1 1 2 2 2 3 2 2 2 2 2 2 2 2 3 2 2 2 3 3
5 5 3 6 3 3 5 5 7 8 8 8 8 8 8 6 6 4 4 3 3 3 3 2 1 2 1 1 0 0 1 2 2 2 2 3 2 2 2 2 2 2 2 2 2 2 2 2 3
7 3 2 5 4 3 4 3 7 7 8 8 8 8 8 7 6 5 5 4 4 3 3 2 1 1 1 1 1 1 2 1 1 2 2 3 3 2 2 2 2 2 2 2 2 3 2 3 3
3 2 2 2 4 4 4 2 6 7 7 7 8 8 8 7 7 6 5 5 4 4 3 3 2 1 1 1 1 1 2 1 1 2 2 3 2 2 2 2 2 1 2 2 2 3 2 2 2
3 3 1 2 3 4 4 3 5 7 8 8 8 8 8 7 7 7 6 5 5 4 4 3 2 2 1 1 1 1 2 1 2 2 3 3 3 3 2 2 3 2 2 2 3 3 4 3 3
6 5 2 2 3 4 3 4 5 7 9 8 8 8 9 9 8 7 7 6 5 5 4 4 4 3 3 1 1 0 1 1 2 2 3 2 2 2 2 2 2 2 2 3 3 3 2 3 2
8 6 3 2 3 5 4 6 7 8 8 8 8 8 9 9 9 9 8 7 7 6 6 4 4 3 3 2 2 2 2 2 2 2 2 2 2 2 2 2 2 2 2 2 3 3 3 2 3
7 3 4 4 6 3 5 3 5 7 8 9 9 9 9 9 10 9 9 9 8 7 6 5 5 4 3 3 2 2 1 1 2 1 2 3 2 2 2 2 2 2 2 2 3 3 2 2 2
3 2 5 6 6 5 5 6 3 7 7 8 9 10 10 10 10 10 10 10 9 8 7 6 5 5 4 3 3 3 2 2 2 2 3 2 3 2 2 3 2 2 2 2 2 2 2 2 2
5 6 6 7 8 7 4 7 3 4 5 6 8 9 10 10 10 10 10 9 9 8 7 7 7 6 5 4 4 3 2 2 2 2 3 3 2 2 3 3 2 2 2 2 2 2 3 1 1
10 9 7 7 7 4 3 7 1 2 2 4 7 8 9 11 10 10 10 10 9 9 8 8 7 7 6 5 4 4 3 3 3 2 2 2 2 2 2 2 2 2 2 2 2 2 1 2 2
10 11 8 7 6 4 7 6 1 1 1 3 5 7 8 10 10 10 10 10 10 10 9 9 8 7 6 6 5 4 4 3 3 2 1 2 2 2 2 2 2 2 2 2 2 2 2 1 1
10 10 8 10 9 8 5 4 4 3 3 4 6 7 8 9 10 10 10 10 10 10 10 10 9 8 7 7 6 5 4 3 3 3 3 2 2 3 3 2 2 2 2 2 2 1 1 1 1
8 8 7 8 8 9 7 8 4 4 4 4 5 6 8 8 9 10 9 9 9 9 9 9 9 8 7 7 6 6 6 5 4 4 3 3 3 2 3 3 2 2 1 2 2 2 2 2 1
9 9 8 7 8 10 8 4 2 3 3 3 4 5 7 8 9 9 8 8 8 8 9 9 9 8 8 7 6 6 6 6 5 4 4 4 3 3 3 3 2 2 2 1 1 2 2 2 1
8 9 10 9 7 9 9 3 4 2 3 3 3 4 5 6 7 8 8 8 8 8 8 8 9 9 8 8 7 7 6 6 6 5 5 4 4 4 4 3 3 2 2 2 2 2 2 2 2
Wind_Direction
182 191 219 239 228 82 59 53 47 53 56 54 46 38 42 30 23 59 75 81 96 110 116 124 117 114 112 112 113 116 117 119 119 118 117 119 121 123 126 128 127 128 128 129 128 128 131 136 138
177 195 232 242 326 64 58 49 54 51 74 88 62 58 63 62 53 83 99 91 106 110 116 110 110 115 115 113 112 113 119 119 117 120 120 121 123 127 129 130 129 128 130 132 132 129 131 136 137
188 235 265 289 44 49 56 54 63 73 78 67 66 54 48 59 68 84 91 116 120 112 110 106 110 113 116 114 109 108 111 116 118 121 123 122 122 126 129 130 128 131 134 136 134 133 131 133 136
221 226 229 60 60 56 59 65 76 85 79 62 71 81 74 59 68 95 105 112 115 115 108 107 119 118 118 114 110 111 109 112 115 119 122 125 125 124 127 130 132 135 137 138 136 136 138 140 140
240 256 105 73 64 62 63 66 70 69 69 74 73 84 84 73 86 102 112 112 106 106 109 114 120 119 115 113 111 109 109 109 111 113 119 123 123 123 128 132 136 138 142 142 140 137 140 141 139
248 254 56 66 69 68 66 65 71 73 80 83 88 94 88 100 103 109 102 98 101 107 108 113 128 123 115 112 105 97 97 100 109 115 117 123 125 127 126 129 132 137 142 142 140 140 140 142 142
305 20 56 65 72 71 65 59 61 71 79 74 78 91 107 120 116 113 109 109 106 108 111 117 125 129 130 121 107 97 92 92 98 105 113 122 130 133 133 131 132 134 137 137 141 146 148 147 145
302 315 70 66 67 69 76 79 69 73 82 92 98 97 121 135 140 134 124 112 109 113 116 114 104 108 127 125 117 111 103 97 103 108 115 135 149 148 150 146 130 133 136 138 145 157 156 150 147
263 327 61 55 62 79 89 93 88 87 105 100 82 81 111 130 140 135 129 125 120 114 111 115 111 117 110 102 114 137 136 118 143 131 140 188 153 139 149 117 128 133 134 138 134 145 152 157 156
271 40 55 50 58 82 93 86 104 128 115 110 104 99 116 134 138 132 130 124 115 113 117 110 101 102 99 98 109 115 116 111 96 83 109 125 107 109 119 128 131 129 133 138 127 135 159 179 158
16 50 60 66 71 85 94 92 110 121 110 114 126 130 135 138 135 131 123 112 106 116 116 108 101 87 81 100 105 86 92 100 117 107 111 108 112 123 125 131 143 148 158 152 147 168 156 143 131
92 72 65 76 84 94 92 99 100 80 78 99 123 133 138 141 134 127 122 115 108 108 110 103 105 112 91 61 86 119 101 107 97 112 111 110 112 119 112 124 131 148 141 145 154 135 128 136 140
104 82 76 99 113 101 109 102 98 93 96 111 124 134 138 138 131 123 117 115 110 112 116 108 105 96 98 86 300 81 75 74 100 100 95 85 109 104 111 110 121 133 134 149 152 140 132 131 128
70 84 113 127 119 122 117 109 114 107 122 128 136 141 143 138 135 130 128 121 121 120 112 110 118 105 101 143 132 99 111 111 91 98 95 91 97 99 114 127 119 117 139 130 144 132 134 132 123
148 147 145 135 136 132 154 127 114 123 142 143 147 145 144 145 141 146 146 146 132 125 112 121 136 120 126 196 213 159 105 99 92 100 107 109 107 110 126 124 135 120 123 129 134 130 137 137 135
200 208 169 135 158 166 232 105 113 144 159 156 153 151 155 154 154 160 161 162 146 134 124 131 147 118 111 81 4 33 67 87 98 100 116 122 114 127 131 121 119 119 138 138 131 132 124 118 124
203 215 157 139 169 187 227 110 128 161 172 166 163 162 165 161 166 170 175 171 158 149 142 150 156 133 111 112 128 112 107 87 92 101 104 113 121 127 130 107 104 143 136 125 129 113 117 119 116
220 221 175 147 155 208 216 146 142 169 184 177 173 171 171 172 174 178 181 173 165 160 159 167 173 155 167 158 134 116 102 109 106 102 99 109 120 121 120 128 121 141 123 120 114 122 120 115 124
263 259 212 104 140 212 216 201 170 173 192 189 184 181 177 179 173 176 178 178 174 167 168 174 179 167 198 204 207 136 120 106 104 105 102 115 118 118 122 123 132 145 120 126 139 139 136 136 138
226 229 182 152 163 227 231 227 194 185 199 197 192 189 185 181 179 180 180 178 179 173 176 177 180 175 194 159 176 134 89 105 92 88 104 117 119 122 131 129 148 134 132 136 140 145 150 142 151
224 236 224 190 184 207 240 210 194 186 198 198 200 196 193 187 183 180 179 179 182 179 181 180 178 178 186 179 175 149 152 169 138 125 122 114 114 118 105 126 125 131 142 137 155 166 165 156 152
222 218 227 217 231 212 245 258 167 183 192 199 201 199 196 188 185 184 181 180 184 183 179 175 174 177 179 190 186 178 166 133 105 110 106 120 121 123 124 128 126 137 133 144 174 157 175 187 166
232 183 219 229 243 252 223 263 162 169 192 195 197 197 195 192 189 186 184 181 183 180 176 171 169 173 177 188 176 190 178 151 138 122 116 132 129 137 137 141 136 140 138 136 148 158 195 191 192
179 184 199 225 243 244 240 259 224 158 204 195 187 193 193 191 189 187 182 179 182 180 178 172 169 176 179 185 186 196 174 160 140 135 135 155 139 139 144 149 146 147 138 145 161 174 176 185 192
208 215 218 220 224 230 191 249 270 108 189 205 191 191 191 188 187 186 183 182 182 182 180 176 173 177 180 182 186 186 182 177 172 172 146 156 135 133 128 131 142 139 148 157 159 159 156 170 179
217 232 245 254 251 221 195 239 169 121 179 190 184 183 183 186 186 185 183 185 184 183 183 180 178 180 179 182 183 185 190 193 174 172 162 145 123 109 117 134 138 141 168 175 169 174 171 164 179
218 234 258 259 258 261 226 216 191 182 180 171 170 170 175 178 179 181 182 185 185 184 185 185 181 182 182 183 180 181 188 192 169 163 174 151 130 139 137 137 141 149 172 183 191 161 178 171 192
251 234 232 246 254 254 240 231 218 183 188 176 172 171 172 174 176 178 179 182 184 184 183 185 184 183 184 183 186 176 179 177 174 175 156 150 146 135 142 149 151 154 155 167 191 175 158 161 154
201 217 240 245 255 261 256 235 124 189 192 189 178 174 176 178 176 177 176 178 179 181 180 182 184 183 184 187 185 180 176 168 167 169 167 163 157 155 156 156 158 159 167 174 181 183 158 159 153
233 229 228 238 238 254 268 251 113 155 171 185 180 171 170 176 175 174 173 173 176 179 181 183 185 185 185 183 183 183 175 170 171 171 168 163 166 170 164 164 166 170 156 166 183 175 159 165 170